Elko, NV

10:03 AM PST on December 11, 2017 (GMT -0800)
Elko Regional

Weather History for KEKO - December, 2012

Change the Weather History Date:

Monday, December 31, 2012

  Actual Average Record
Temperature  
Mean Temperature 3 °F 25 °F  
Max Temperature 15 °F 36 °F 60 °F (1917)
Min Temperature -9 °F 13 °F -19 °F (1916)
Degree Days  
Heating Degree Days 62 40  
Month to date heating degree days 1130 1209  
Since 1 July heating degree days 2448 2948  
Cooling Degree Days 0 0  
Month to date cooling degree days 0 0  
Year to date cooling degree days 682 383  
Moisture  
Dew Point -6 °F    
Average Humidity 87    
Maximum Humidity 100    
Minimum Humidity 73    
Precipitation  
Precipitation T in 0.04 in 1.14 in (2005)
Month to date precipitation 2.18 1.20  
Year to date precipitation 7.82 9.91  
Snow  
Snow 0.10 in 0.40 in 4.70 in (1988)
Month to date snowfall 22.1 9.9  
Since 1 July snowfall 23.9 15.6  
Snow Depth 9.00 in    
Sea Level Pressure  
Sea Level Pressure 30.31 in    
Wind  
Wind Speed 5 mph (East)    
Max Wind Speed 15 mph    
Max Gust Speed 18 mph    
Visibility 6 miles    
Events Fog , Snow    
T = Trace of Precipitation, MM = Missing Value Source: NWS Daily Summary

Daily Weather History Graph

Daily Weather History Graph

Search for Another Location

Airport or City:

Trip Planner

Search our weather history database for the weather conditions in past years. The results will help you decide how hot, cold, wet, or windy it might be!

Date:

Astronomy

Dec. 31, 2012 Rise Set
Actual Time 7:07 AM PST 4:25 PM PST
Civil Twilight 6:36 AM PST 4:56 PM PST
Nautical Twilight 6:02 AM PST 5:30 PM PST
Astronomical Twilight 5:28 AM PST 6:04 PM PST
Moon 8:02 PM PST (12/31) 8:50 AM PST (12/31)
Length of Visible Light 10h 20m
Length of Day
9h 18m
Waning Gibbous, 89% of the Moon is Illuminated
Dec 31
Waning Gibbous
Jan 4
Last Quarter
Jan 11
New
Jan 18
First Quarter
Jan 26
Full

Hourly Weather History & Observations

Time (PST) Temp. Windchill Dew Point Humidity Pressure Visibility Wind Dir Wind Speed Gust Speed Precip Events Conditions
12:56 AM -6.0 °F -20.1 °F -8.0 °F 91% 30.39 in 10.0 mi ENE 6.9 mph - N/A   Partly Cloudy
1:12 AM -4.0 °F -14.6 °F -7.6 °F 85% 30.14 in 7.0 mi NE 4.6 mph - N/A   Mostly Cloudy
1:48 AM -5.8 °F -21.2 °F -9.4 °F 84% 30.15 in 4.0 mi East 8.1 mph - N/A   Overcast
1:53 AM -5.8 °F -19.9 °F -9.4 °F 84% 30.15 in 1.2 mi East 6.9 mph - N/A   Overcast
1:56 AM -6.0 °F -21.5 °F -9.0 °F 87% 30.39 in 0.8 mi East 8.1 mph - N/A   Overcast
2:11 AM -7.6 °F -22.1 °F -9.4 °F 92% 30.16 in 0.8 mi ENE 6.9 mph - N/A   Mist
2:45 AM -5.8 °F -16.7 °F -7.6 °F 92% 30.15 in 2.0 mi NE 4.6 mph - N/A   Overcast
2:53 AM -5.8 °F -14.5 °F -7.6 °F 92% 30.15 in 8.0 mi NE 3.5 mph - N/A   Mostly Cloudy
2:56 AM -6.0 °F -14.7 °F -8.0 °F 91% 30.39 in 8.0 mi ENE 3.5 mph - N/A   Mostly Cloudy
3:19 AM -5.8 °F -14.5 °F -9.4 °F 84% 30.15 in 2.5 mi ESE 3.5 mph - N/A   Mostly Cloudy
3:26 AM -7.6 °F -16.5 °F -9.4 °F 92% 30.14 in 6.0 mi ESE 3.5 mph - N/A   Mostly Cloudy
3:42 AM -7.6 °F -18.8 °F -11.2 °F 84% 30.14 in 2.5 mi East 4.6 mph - N/A   Overcast
3:56 AM -7.1 °F -18.1 °F -11.0 °F 83% 30.40 in 6.0 mi East 4.6 mph - N/A   Mostly Cloudy
4:06 AM -7.6 °F -18.8 °F -11.2 °F 84% 30.14 in 4.0 mi East 4.6 mph - N/A   Mostly Cloudy
4:20 AM -7.6 °F - -9.4 °F 92% 30.15 in 2.5 mi Calm Calm - N/A   Overcast
4:29 AM -7.6 °F -18.8 °F -9.4 °F 92% 30.16 in 4.0 mi East 4.6 mph - N/A   Overcast
4:33 AM -7.6 °F -22.1 °F -11.2 °F 84% 30.16 in 1.8 mi East 6.9 mph - N/A   Overcast
4:42 AM -7.6 °F -20.6 °F -11.2 °F 84% 30.16 in 4.0 mi East 5.8 mph - N/A   Overcast
4:56 AM -7.1 °F -18.1 °F -9.9 °F 87% 30.44 in 5.0 mi ENE 4.6 mph - N/A   Overcast
5:39 AM -7.6 °F -16.5 °F -11.2 °F 84% 30.18 in 8.0 mi East 3.5 mph - N/A   Scattered Clouds
5:47 AM -7.6 °F -18.8 °F -11.2 °F 84% 30.18 in 8.0 mi East 4.6 mph - N/A   Mostly Cloudy
5:56 AM -8.0 °F -19.2 °F -11.9 °F 83% 30.49 in 7.0 mi East 4.6 mph - N/A   Mostly Cloudy
6:30 AM -7.6 °F -20.6 °F -11.2 °F 84% 30.18 in 8.0 mi East 5.8 mph - N/A   Scattered Clouds
6:56 AM -9.0 °F -22.3 °F -13.0 °F 83% 30.51 in 8.0 mi East 5.8 mph - N/A   Partly Cloudy
7:56 AM -9.0 °F -18.2 °F -11.9 °F 87% 30.52 in 5.0 mi East 3.5 mph - N/A   Mostly Cloudy
8:15 AM -5.8 °F -14.5 °F -9.4 °F 84% 30.22 in 6.0 mi East 3.5 mph - N/A   Scattered Clouds
8:20 AM -5.8 °F -16.7 °F -9.4 °F 84% 30.22 in 6.0 mi East 4.6 mph - N/A   Mostly Cloudy
8:36 AM -5.8 °F -19.9 °F -9.4 °F 84% 30.23 in 5.0 mi East 6.9 mph - N/A   Partly Cloudy
8:56 AM -4.0 °F -16.3 °F -7.1 °F 87% 30.52 in 8.0 mi ENE 5.8 mph - N/A   Partly Cloudy
9:07 AM -2.2 °F - -4.0 °F 92% 30.23 in 4.0 mi Calm Calm - 0.00 in Snow Light Snow
9:17 AM -0.4 °F -8.3 °F -2.2 °F 92% 30.23 in 2.5 mi East 3.5 mph - 0.00 in Snow Light Snow
9:24 AM -0.4 °F -10.4 °F -2.2 °F 92% 30.23 in 3.0 mi East 4.6 mph - 0.00 in Snow Light Snow
9:42 AM 1.4 °F - 1.4 °F 100% 30.23 in 9.0 mi Calm Calm - 0.00 in   Scattered Clouds
9:56 AM 3.0 °F - 3.0 °F 100% 30.49 in 8.0 mi Calm Calm - 0.00 in   Partly Cloudy
10:56 AM 8.1 °F -2.0 °F 5.0 °F 87% 30.48 in 10.0 mi WSW 5.8 mph - N/A   Scattered Clouds
11:07 AM 8.6 °F -1.3 °F 6.8 °F 92% 30.22 in 10.0 mi WSW 5.8 mph - N/A   Mostly Cloudy
11:56 AM 12.0 °F 0.5 °F 8.1 °F 84% 30.46 in 10.0 mi SW 8.1 mph - N/A   Overcast
12:19 PM 12.2 °F -1.0 °F 8.6 °F 85% 30.19 in 10.0 mi SSW 10.4 mph - N/A   Overcast
12:34 PM 12.2 °F 0.7 °F 8.6 °F 85% 30.19 in 10.0 mi SSW 8.1 mph - N/A   Overcast
12:41 PM 12.2 °F -0.2 °F 8.6 °F 85% 30.19 in 10.0 mi SSW 9.2 mph - N/A   Overcast
12:56 PM 14.0 °F 0.5 °F 8.1 °F 77% 30.45 in 10.0 mi SSW 11.5 mph - N/A   Mostly Cloudy
1:56 PM 14.0 °F 3.9 °F 8.1 °F 77% 30.45 in 10.0 mi SSW 6.9 mph - N/A   Clear
3:56 PM 10.9 °F 4.7 °F 3.9 °F 73% 30.47 in 10.0 mi SW 3.5 mph - N/A   Clear
4:56 PM 3.0 °F - -0.9 °F 84% 30.51 in 10.0 mi Calm Calm - N/A   Clear
5:41 PM 3.2 °F - -2.2 °F 78% 30.20 in 0.8 mi Calm Calm - N/A   Haze
5:51 PM 3.2 °F - -0.4 °F 85% 30.20 in 2.5 mi Calm Calm - N/A   Clear
5:56 PM 1.0 °F - -2.0 °F 87% 30.53 in 10.0 mi Calm Calm - N/A   Clear
6:15 PM -0.4 °F - -4.0 °F 85% 30.21 in 1.8 mi Calm Calm - N/A   Clear
6:56 PM 1.0 °F - -4.0 °F 79% 30.53 in 10.0 mi Calm Calm - N/A   Clear
7:56 PM -0.0 °F -14.2 °F -4.0 °F 83% 30.55 in 2.5 mi East 8.1 mph - N/A   Partly Cloudy
8:16 PM -2.2 °F -12.5 °F -5.8 °F 85% 30.21 in 4.0 mi ENE 4.6 mph - N/A   Partly Cloudy
8:56 PM -0.9 °F -11.0 °F -5.1 °F 83% 30.55 in 10.0 mi ENE 4.6 mph - N/A   Clear
9:56 PM -8.0 °F - -9.9 °F 91% 30.58 in 10.0 mi Calm Calm - N/A   Clear
10:37 PM -9.4 °F - -13.0 °F 84% 30.27 in 1.2 mi Calm Calm - N/A   Partly Cloudy
10:42 PM -7.6 °F - -11.2 °F 84% 30.27 in 0.2 mi Calm Calm - N/A Fog Light Freezing Fog
10:50 PM -7.6 °F - -9.4 °F 92% 30.28 in 0.5 mi Calm Calm - N/A Fog Light Freezing Fog
10:53 PM -7.6 °F -18.8 °F -9.4 °F 92% 30.28 in 1.2 mi East 4.6 mph - N/A   Partly Cloudy
10:56 PM -6.0 °F -18.6 °F -11.0 °F 79% 30.57 in 5.0 mi East 5.8 mph - N/A   Haze
11:56 PM -7.1 °F -21.4 °F -11.0 °F 83% 30.56 in 10.0 mi East 6.9 mph - N/A   Clear